Location: Unspecified
(0.0000°N, 0.0000°E)
Time: 04:03:24
(UTC+00:00)

FENGYUN 1C DEB - Pass Details

Date: 22 February 2026
Orbit: 775 x 802 km, 98.9° (Epoch: 9 April)

Event Time Altitude Azimuth Distance (km) Brightness Sun altitude
Rises 04:43:40 0° 179° (S) 3,205 ? -22.1°
Reaches altitude 10° 04:46:02 10° 185° (S) 2,282 ? -21.5°
Maximum altitude 04:50:48 45° 257° (WSW) 1,031 ? -20.3°
Enters shadow 04:51:38 41° 284° (WNW) 1,091 ? -20.1°
